01:59
Airports
History
Links
Donate
Help keep this website running!
PayPal
Bitcoin
This page is community maintained. The information is intended for PC simulator navigation or reference.
Always use approved charts for navigation.
OH43
Anderson
Anderson (OH43)
Canal Winchester, Ohio, United States (43110)
4
Lat/Lng:39° 50' 0.23" N / 82° 43' 59.61" W
39.833397 / -82.733226
Elevation:800'ft / 244mMSL
ID / ICAO:OH43
Runways:1
Longest:09-27
Grass 724m / 2,376ft
Nearby Weather01:53 GMT 2018-02-19
Nearby weather at KLHQ, Fairfield County located 6.7 nautical miles from OH43
Altimeter: 30.23
Visibility: 10.0 statute miles
Wind: 6 knots (from 130°)
Temp: 2°c / 36°f
Humidity: 74.7%

METAR: KLHQ 190153Z AUTO 13006KT 10SM CLR 02/M02 A3023 RMK AO2 SLP243 T00221022

(Powered by phpweather)
Nearby VORs <50NM
Nearby NDBs
Runway 09 / 27
Dimensions:724.2 x 30.5m 2376' x 100'ft
Surface:Grass
Runway 09 [A]Runway 27 [B]
Heading:085°TH 265°TH
Lat:
Lng:
39° 49' 59.2"N
82° 44' 14.98"W
39° 50' 1.26"N
82° 43' 44.24"W
User Notes and Comments
39° 50' 0.23" N / 82° 43' 59.61" W
Distance To
Airport ID:
Nearby Airports
(U) Fairfield County 6.7 NM
KLHQ ( WX ) SE 143°
4 Industry Air Park 8.2 NM
9I6 E 84°
(C) Rickenbacker Intl 10.4 NM
KLCK ( WX ) W 262°
(U) Buckeye Executive 13.5 NM
3I9 NE 49°
(R) Amanda 13.7 NM
OH61 S 181°
(C) Port Columbus Intl 14.1 NM
KCMH ( WX ) NW 323°
4 Lyttle 15.2 NM
OH98 NNW 348°
VFR Chart
Flight Planning at SkyVector.com